Total_Precipitation_Accumulation
0.10 0.10 0.10 0.09 0.09 0.10 0.12 0.17 0.24 0.20 0.12 0.06 0.05 0.08 0.16 0.22 0.25 0.28 0.26 0.14 0.10 0.08 0.07 0.10 0.13 0.17 0.21 0.24 0.25 0.26 0.24 0.24 0.27 0.36 0.47 0.58 0.65 0.69
0.11 0.11 0.11 0.10 0.12 0.13 0.14 0.16 0.23 0.29 0.24 0.11 0.07 0.10 0.18 0.22 0.29 0.31 0.28 0.24 0.17 0.12 0.12 0.24 0.33 0.34 0.35 0.33 0.30 0.32 0.34 0.33 0.33 0.36 0.44 0.53 0.63 0.72
0.09 0.10 0.10 0.11 0.12 0.12 0.15 0.20 0.24 0.31 0.33 0.16 0.10 0.16 0.24 0.29 0.34 0.34 0.31 0.29 0.25 0.23 0.20 0.29 0.54 0.74 0.66 0.55 0.47 0.42 0.42 0.43 0.43 0.45 0.51 0.58 0.61 0.67
0.09 0.10 0.09 0.10 0.11 0.12 0.16 0.18 0.21 0.27 0.36 0.28 0.18 0.21 0.27 0.36 0.44 0.45 0.40 0.35 0.32 0.35 0.33 0.32 0.50 0.91 1.01 0.79 0.68 0.58 0.49 0.48 0.48 0.51 0.55 0.58 0.59 0.63
0.09 0.11 0.11 0.12 0.14 0.16 0.20 0.22 0.24 0.27 0.38 0.45 0.35 0.30 0.33 0.43 0.56 0.54 0.45 0.44 0.35 0.34 0.36 0.40 0.54 1.07 1.43 1.21 0.93 0.82 0.66 0.57 0.51 0.52 0.57 0.59 0.56 0.53
0.08 0.11 0.12 0.16 0.19 0.22 0.23 0.25 0.32 0.37 0.38 0.43 0.40 0.38 0.41 0.47 0.60 0.66 0.54 0.46 0.38 0.28 0.34 0.43 0.58 1.05 1.60 1.80 1.45 1.17 0.94 0.75 0.63 0.55 0.53 0.51 0.46 0.41
0.08 0.11 0.12 0.15 0.21 0.24 0.26 0.32 0.42 0.49 0.46 0.46 0.45 0.44 0.46 0.54 0.58 0.60 0.56 0.45 0.32 0.27 0.32 0.38 0.63 1.25 1.79 2.12 2.02 1.52 1.12 0.89 0.72 0.61 0.55 0.49 0.43 0.37
0.12 0.12 0.09 0.09 0.12 0.17 0.24 0.32 0.41 0.49 0.55 0.58 0.56 0.50 0.45 0.50 0.55 0.59 0.57 0.52 0.39 0.27 0.31 0.40 0.75 1.49 2.06 2.36 2.34 1.71 1.17 0.95 0.84 0.74 0.68 0.60 0.51 0.43
0.15 0.13 0.08 0.07 0.12 0.17 0.20 0.22 0.29 0.41 0.58 0.70 0.69 0.54 0.53 0.59 0.68 0.70 0.57 0.55 0.51 0.35 0.38 0.52 0.89 1.48 2.04 2.54 2.49 1.84 1.35 1.08 0.98 0.88 0.80 0.71 0.59 0.48
0.11 0.11 0.12 0.15 0.16 0.15 0.16 0.22 0.35 0.45 0.53 0.56 0.63 0.63 0.66 0.64 0.61 0.60 0.54 0.55 0.46 0.31 0.38 0.62 0.93 1.41 1.87 2.30 2.37 1.83 1.41 1.18 1.06 0.94 0.82 0.71 0.60 0.51
0.06 0.09 0.12 0.17 0.15 0.20 0.28 0.40 0.57 0.72 0.70 0.68 0.72 0.82 0.86 0.73 0.55 0.51 0.58 0.60 0.47 0.29 0.36 0.58 0.85 1.15 1.51 1.84 1.93 1.72 1.40 1.21 1.06 0.92 0.78 0.66 0.58 0.54
0.05 0.08 0.15 0.19 0.19 0.30 0.39 0.56 0.77 0.90 0.78 0.71 0.78 0.90 0.85 0.76 0.73 0.68 0.66 0.60 0.50 0.42 0.39 0.52 0.68 0.85 1.25 1.50 1.42 1.27 1.21 1.22 1.13 1.00 0.84 0.66 0.51 0.43
0.09 0.15 0.22 0.26 0.25 0.37 0.55 0.70 0.94 0.99 0.85 0.72 0.67 0.67 0.65 0.63 0.62 0.65 0.59 0.52 0.48 0.46 0.44 0.55 0.68 0.77 0.95 1.19 1.25 1.19 1.04 1.03 1.02 1.06 1.04 0.84 0.59 0.45
0.19 0.28 0.31 0.31 0.34 0.51 0.66 0.85 1.09 1.17 0.92 0.69 0.53 0.47 0.47 0.50 0.52 0.47 0.41 0.38 0.38 0.42 0.43 0.50 0.68 0.81 0.81 0.82 1.05 1.12 1.08 1.08 1.02 1.02 1.03 0.97 0.78 0.68
0.22 0.38 0.39 0.36 0.52 0.77 0.96 1.09 1.23 1.19 0.92 0.65 0.50 0.43 0.39 0.39 0.40 0.40 0.36 0.32 0.31 0.33 0.35 0.41 0.56 0.70 0.70 0.70 0.85 0.92 1.08 1.29 1.21 1.14 1.04 0.91 0.82 0.72
0.18 0.34 0.47 0.52 0.69 0.96 1.14 1.23 1.25 1.15 0.91 0.67 0.53 0.45 0.39 0.36 0.37 0.35 0.33 0.29 0.29 0.36 0.38 0.41 0.48 0.57 0.66 0.67 0.74 0.84 0.96 1.36 1.42 1.21 1.06 1.00 0.94 0.85
0.19 0.26 0.37 0.50 0.70 0.91 1.03 1.07 1.04 0.98 0.86 0.67 0.54 0.47 0.43 0.39 0.39 0.35 0.32 0.27 0.29 0.36 0.41 0.45 0.49 0.51 0.56 0.62 0.74 0.86 0.99 1.21 1.28 1.07 0.90 0.97 1.04 0.94
0.24 0.33 0.47 0.60 0.76 0.89 0.96 0.94 0.87 0.81 0.73 0.62 0.53 0.47 0.44 0.40 0.39 0.34 0.28 0.25 0.28 0.31 0.34 0.36 0.34 0.31 0.36 0.55 0.81 0.87 0.89 1.03 1.05 0.87 0.67 0.74 0.96 0.98
0.26 0.40 0.55 0.69 0.81 0.86 0.87 0.83 0.78 0.73 0.62 0.53 0.48 0.44 0.39 0.35 0.32 0.28 0.25 0.24 0.24 0.23 0.23 0.22 0.19 0.13 0.19 0.51 0.84 0.94 0.84 0.81 0.78 0.72 0.62 0.59 0.79 0.95
0.33 0.47 0.59 0.66 0.75 0.79 0.77 0.75 0.70 0.63 0.53 0.48 0.46 0.42 0.36 0.30 0.26 0.23 0.21 0.19 0.17 0.15 0.14 0.14 0.15 0.14 0.16 0.34 0.73 0.96 0.86 0.65 0.53 0.54 0.55 0.56 0.70 0.79
0.37 0.46 0.53 0.58 0.63 0.66 0.64 0.60 0.58 0.54 0.47 0.43 0.41 0.40 0.37 0.30 0.23 0.18 0.15 0.13 0.12 0.11 0.13 0.17 0.19 0.16 0.10 0.11 0.35 0.63 0.72 0.68 0.51 0.42 0.41 0.43 0.46 0.42
0.36 0.44 0.47 0.46 0.46 0.48 0.46 0.43 0.41 0.41 0.39 0.38 0.37 0.35 0.32 0.25 0.19 0.14 0.12 0.10 0.09 0.09 0.10 0.12 0.12 0.09 0.07 0.10 0.24 0.41 0.48 0.45 0.41 0.39 0.38 0.31 0.24 0.28
0.34 0.36 0.39 0.39 0.36 0.33 0.33 0.33 0.33 0.34 0.33 0.34 0.33 0.30 0.26 0.21 0.15 0.11 0.08 0.06 0.05 0.06 0.06 0.07 0.07 0.06 0.06 0.08 0.13 0.20 0.23 0.22 0.19 0.22 0.35 0.39 0.31 0.34